{"data":{"norad_id":39251,"epoch":"2026-05-25T03:16:50.580192Z","epoch_age_seconds":70012,"freshness":"FRESH","line1":"1 39251U 13048C   26145.13669653 -.00000147  00000+0 -11339-2 0  9995","line2":"2 39251  82.4913   0.6651 0016414 265.3560  94.5645 12.42913430575975","mean_motion":12.4291343,"eccentricity":0.0016414,"inclination_deg":82.4913,"raan_deg":0.6651,"arg_perigee_deg":265.356,"mean_anomaly_deg":94.5645,"bstar":-0.0011339,"rev_number":57597,"period_min":115.85682198317,"perigee_km":1481.3551444928,"apogee_km":1507.1987049249,"semimajor_km":7872.4139247088,"source":"CELESTRAK","updated_at":"2026-05-25T13:37:55.374422Z"}}